(166646) = 2002 TJ4

Discovered at Anderson Mesa on 2002-10-01 by LONEOS.

Orbit

Orbit type: Main Belt

Note: WebGL enabled browser required.

epoch2023-09-13.0
epoch JD2460200.5
perihelion date2020-03-25.93984
perihelion JD2458934.43984
argument of perihelion (°)55.97943
ascending node (°)40.70496
inclination (°)10.41504
eccentricity0.2119648
perihelion distance (AU)2.4668539
Tisserand w.r.t. Jupiter3.2
ΔV w.r.t. Earth (km/sec)10.4
semimajor axis (AU)3.1303855
mean anomaly (°)225.30013
mean daily motion (°/day)0.17795370
aphelion distance (AU)3.794
period (years)5.54
P-vector [x]-0.10749418
P-vector [y]0.84214649
P-vector [z]0.52842623
Q-vector [x]-0.98719067
Q-vector [y]-0.15343887
Q-vector [z]0.04371613
absolute magnitude14.91
phase slope0.15
uncertainty0
referenceMPEC 2023-R158
observations used833
oppositions13
arc length (days)7667
first opposition used2002
last opposition used2023
residual rms (arc-secs)0.70
perturbers coarse indicatorM-v
perturbers precise indicator003Ek
first observation date used2002-09-14.0
last observation date used2023-09-11.0
computer nameMPCLINUX
JD of orbit computation2456731.563568
perihelion JD uncertainty (days)1.7091E-04
argument of perihelion uncertainty (°)4.5364E-05
ascending node uncertainty (°)3.3457E-05
inclination uncertainty (°)9.0077E-06
eccentricity uncertainty 4.2412E-08
perihelion distance uncertainty (AU)1.4752E-07
Minimum Orbit Intersection Distances (in AU)
for orbit epoch: 2460200.5, reference: E2023-RF8
Mercury2.15596
Venus1.75602
Earth1.49988
Mars0.90753
Jupiter1.57349
Saturn6.37181
Uranus15.3468
Neptune26.5939

Observations

852 total observations over interval: 2002 09 14.58452 – 2023 09 11.301163
These data are available for download (format description).

Date (UT) J2000 RA J2000 Dec Magn Location Ref
2002 09 14.58452 02 03 07.46 +06 25 40.8 21.3   608 – Haleakala-AMOS MPS 63812
2002 09 14.59525 02 03 07.21 +06 25 39.6 20.7   608 – Haleakala-AMOS MPS 63812
2002 09 14.60597 02 03 06.95 +06 25 40.6 20.7   608 – Haleakala-AMOS MPS 63812
2002 09 17.57680 02 01 56.94 +06 23 50.5 20.2   608 – Haleakala-AMOS MPS 63812
2002 09 17.58743 02 01 56.68 +06 23 50.1 19.9   608 – Haleakala-AMOS MPS 63812
2002 09 17.59816 02 01 56.36 +06 23 49.6 20.5   608 – Haleakala-AMOS MPS 63812
2002 10 01.32273 01 54 05.52 +06 08 21.7 18.5 R 699 – Lowell Observatory-LONEOS MPS 63812
2002 10 01.32348 01 54 05.48 +06 08 21.9 18.7   704 – Lincoln Laboratory ETS, New Mexico MPS 83008
2002 10 01.33896 01 54 04.84 +06 08 20.0 19.0   704 – Lincoln Laboratory ETS, New Mexico MPS 83008
2002 10 01.34472 01 54 04.55 +06 08 19.7   699 – Lowell Observatory-LONEOS MPS 63812
2002 10 01.35383 01 54 04.18 +06 08 18.9 18.8   704 – Lincoln Laboratory ETS, New Mexico MPS 83008
2002 10 01.36670 01 54 03.62 +06 08 17.4   699 – Lowell Observatory-LONEOS MPS 63812
2002 10 01.36857 01 54 03.54 +06 08 17.4 18.8   704 – Lincoln Laboratory ETS, New Mexico MPS 83008
2002 10 01.38867 01 54 02.64 +06 08 16.3   699 – Lowell Observatory-LONEOS MPS 63812
2002 10 02.32354 01 53 22.67 +06 06 53.5 18.7   704 – Lincoln Laboratory ETS, New Mexico MPS 63812
2002 10 02.33846 01 53 22.02 +06 06 52.6 19.2   704 – Lincoln Laboratory ETS, New Mexico MPS 63812
2002 10 02.35432 01 53 21.37 +06 06 50.3 19.2   704 – Lincoln Laboratory ETS, New Mexico MPS 63812
2002 10 03.25623 01 52 41.91 +06 05 25.6 18.9   704 – Lincoln Laboratory ETS, New Mexico MPS 63812
2002 10 03.27125 01 52 41.07 +06 05 26.2 18.8   704 – Lincoln Laboratory ETS, New Mexico MPS 63812
2002 10 03.28618 01 52 40.47 +06 05 24.8 18.9   704 – Lincoln Laboratory ETS, New Mexico MPS 63812
2002 10 03.30111 01 52 39.79 +06 05 22.2 18.9   704 – Lincoln Laboratory ETS, New Mexico MPS 63812
2002 10 03.31603 01 52 39.03 +06 05 22.3 18.6   704 – Lincoln Laboratory ETS, New Mexico MPS 63812
2002 10 10.22379 01 47 12.76 +05 54 13.9 18.5   644 – Palomar Mountain/NEAT MPS 63812
2002 10 10.28967 01 47 09.38 +05 54 07.2 18.1   644 – Palomar Mountain/NEAT MPS 63812
2002 10 10.35175 01 47 06.18 +05 54 01.2 18.3   644 – Palomar Mountain/NEAT MPS 63812
2002 10 11.27874 01 46 19.76 +05 52 28.1 19.1   704 – Lincoln Laboratory ETS, New Mexico MPS 63812
2002 10 11.29370 01 46 18.96 +05 52 27.2 18.4   704 – Lincoln Laboratory ETS, New Mexico MPS 63812
2002 10 11.30870 01 46 18.21 +05 52 25.6 18.6   704 – Lincoln Laboratory ETS, New Mexico MPS 63812
2002 10 31.22535 01 28 54.77 +05 24 43.1 18.7 R 699 – Lowell Observatory-LONEOS MPS 65991
2002 10 31.24725 01 28 53.73 +05 24 41.5   699 – Lowell Observatory-LONEOS MPS 65991
2002 10 31.24988 01 28 53.44 +05 24 41.0 19.2   704 – Lincoln Laboratory ETS, New Mexico MPS 65991
2002 10 31.26703 01 28 52.52 +05 24 40.0 19.6   704 – Lincoln Laboratory ETS, New Mexico MPS 65991
2002 10 31.26916 01 28 52.51 +05 24 40.2   699 – Lowell Observatory-LONEOS MPS 65991
2002 10 31.28412 01 28 51.66 +05 24 39.3 18.9   704 – Lincoln Laboratory ETS, New Mexico MPS 65991
2002 10 31.29108 01 28 51.35 +05 24 38.6   699 – Lowell Observatory-LONEOS MPS 65991
2002 10 31.30124 01 28 50.73 +05 24 38.3 19.2   704 – Lincoln Laboratory ETS, New Mexico MPS 65991
2002 10 31.31839 01 28 49.84 +05 24 37.2 18.9   704 – Lincoln Laboratory ETS, New Mexico MPS 65991
2002 11 06.18082 01 24 05.60 +05 21 02.1 19.4   704 – Lincoln Laboratory ETS, New Mexico MPS 65991
2002 11 06.19725 01 24 04.76 +05 21 01.9 19.7   704 – Lincoln Laboratory ETS, New Mexico MPS 65991
2002 11 06.21376 01 24 03.92 +05 21 01.2 19.9   704 – Lincoln Laboratory ETS, New Mexico MPS 65991
2003 11 19.44815 10 23 33.31 +21 52 19.2 19.5   704 – Lincoln Laboratory ETS, New Mexico MPS 95789
2003 11 19.47350 10 23 35.07 +21 52 16.6 19.9   704 – Lincoln Laboratory ETS, New Mexico MPS 95789
2003 11 19.48607 10 23 35.92 +21 52 14.1 19.8   704 – Lincoln Laboratory ETS, New Mexico MPS 95789
2003 11 19.49845 10 23 36.76 +21 52 12.6 20.1   704 – Lincoln Laboratory ETS, New Mexico MPS 95789
2003 12 19.40201 10 49 49.93 +21 33 33.2 19.0   704 – Lincoln Laboratory ETS, New Mexico MPS 95789
2003 12 19.41544 10 49 50.31 +21 33 34.7 19.2   704 – Lincoln Laboratory ETS, New Mexico MPS 95789
2003 12 19.42872 10 49 50.73 +21 33 35.7 19.3   704 – Lincoln Laboratory ETS, New Mexico MPS 95789
2003 12 19.44203 10 49 51.19 +21 33 36.5 19.5   704 – Lincoln Laboratory ETS, New Mexico MPS 95789
2003 12 19.45572 10 49 51.59 +21 33 38.6 19.5   704 – Lincoln Laboratory ETS, New Mexico MPS 95789
2003 12 28.43960 10 53 43.80 +21 52 15.3 20.0   704 – Lincoln Laboratory ETS, New Mexico MPS 95789
2003 12 28.45401 10 53 44.04 +21 52 18.0 20.3   704 – Lincoln Laboratory ETS, New Mexico MPS 95789
2003 12 28.47145 10 53 44.33 +21 52 21.2 19.8   704 – Lincoln Laboratory ETS, New Mexico MPS 95789
2003 12 28.49030 10 53 44.69 +21 52 23.3 19.8   704 – Lincoln Laboratory ETS, New Mexico MPS 95789
2004 01 28.33618 10 49 43.43 +24 09 40.5 18.7 V 703 – Catalina Sky Survey MPS 97779
2004 01 28.35564 10 49 42.81 +24 09 47.5 18.6 V 703 – Catalina Sky Survey MPS 97779
2004 01 28.37062 10 49 42.14 +24 09 52.1 18.5 V 703 – Catalina Sky Survey MPS 97779
2004 01 28.38560 10 49 41.80 +24 09 55.9 18.0 V 703 – Catalina Sky Survey MPS 97779
2004 01 30.28652 10 48 35.03 +24 20 13.1 18.4 R 699 – Lowell Observatory-LONEOS MPS 97779
2004 01 30.30063 10 48 34.50 +24 20 18.5   699 – Lowell Observatory-LONEOS MPS 97779
2004 01 30.31480 10 48 33.99 +24 20 22.7   699 – Lowell Observatory-LONEOS MPS 97779
2004 01 30.32890 10 48 33.46 +24 20 27.3   699 – Lowell Observatory-LONEOS MPS 97779
2004 01 30.33962 10 48 32.97 +24 20 31.2 19.0   704 – Lincoln Laboratory ETS, New Mexico MPS 97779
2004 01 30.35200 10 48 32.49 +24 20 35.4 19.3   704 – Lincoln Laboratory ETS, New Mexico MPS 97779
2004 01 30.36463 10 48 32.02 +24 20 39.0 19.6   704 – Lincoln Laboratory ETS, New Mexico MPS 97779
2004 01 30.37729 10 48 31.56 +24 20 43.6 19.7   704 – Lincoln Laboratory ETS, New Mexico MPS 97779
2004 01 30.38955 10 48 31.07 +24 20 47.0 19.5   704 – Lincoln Laboratory ETS, New Mexico MPS 97779
2004 02 11.46354 10 39 38.93 +25 22 02.6 17.9   644 – Palomar Mountain/NEAT MPS 98772
2004 02 11.47828 10 39 38.16 +25 22 06.4 18.0   644 – Palomar Mountain/NEAT MPS 98772
2004 02 11.49058 10 39 37.54 +25 22 09.8 18.1   644 – Palomar Mountain/NEAT MPS 98772
2004 02 15.27468 10 36 22.67 +25 38 29.9 18.4   704 – Lincoln Laboratory ETS, New Mexico MPS 100050
2004 02 15.28627 10 36 21.98 +25 38 33.6 18.8   704 – Lincoln Laboratory ETS, New Mexico MPS 100050
2004 02 15.29793 10 36 21.36 +25 38 36.4 19.0   704 – Lincoln Laboratory ETS, New Mexico MPS 100050
2004 02 15.30963 10 36 20.73 +25 38 38.9 18.9   704 – Lincoln Laboratory ETS, New Mexico MPS 100050
2004 02 15.32123 10 36 20.09 +25 38 42.0 19.0   704 – Lincoln Laboratory ETS, New Mexico MPS 100050
2004 03 09.24464 10 16 14.03 +26 23 42.0 19.1   644 – Palomar Mountain/NEAT MPS 100865
2004 03 09.26579 10 16 13.00 +26 23 41.7 18.5   644 – Palomar Mountain/NEAT MPS 100865
2004 03 09.30811 10 16 10.93 +26 23 40.5 18.8   644 – Palomar Mountain/NEAT MPS 100865
2004 03 14.23107 10 12 35.74 +26 19 13.2 18.4   704 – Lincoln Laboratory ETS, New Mexico MPS 101174
2004 03 14.24187 10 12 35.29 +26 19 12.8 18.5   704 – Lincoln Laboratory ETS, New Mexico MPS 101174
2004 03 14.26321 10 12 34.37 +26 19 10.9 19.1   704 – Lincoln Laboratory ETS, New Mexico MPS 101174
2004 03 14.27384 10 12 33.89 +26 19 09.8 19.0   704 – Lincoln Laboratory ETS, New Mexico MPS 101174
2004 03 18.20061 10 10 03.49 +26 12 02.8 19.0   644 – Palomar Mountain/NEAT MPS 102168
2004 03 18.22103 10 10 02.74 +26 12 00.0 19.1   644 – Palomar Mountain/NEAT MPS 102168
2004 03 18.24192 10 10 01.96 +26 11 57.3 18.9   644 – Palomar Mountain/NEAT MPS 102168
2004 03 23.23452 10 07 21.33 +25 58 34.6 18.8   704 – Lincoln Laboratory ETS, New Mexico MPS 102168
2004 03 23.24549 10 07 21.03 +25 58 32.4 19.4   704 – Lincoln Laboratory ETS, New Mexico MPS 102168
2004 03 23.25698 10 07 20.66 +25 58 29.9 19.7   704 – Lincoln Laboratory ETS, New Mexico MPS 102168
